sat.trackr.live / text

‹ back to catalog

STARLINK-35902

NORAD 66626 · 2025-271K

PAYLOAD ACTIVE UNKNOWN

§ Identity

Operator
Country
US
Launch date
2025-11-23
Launch site
AFWTR
Launch vehicle
Mass (kg)
RCS (m²)

Purposes: comms

External: N2YO · Heavens-Above · Gunter

§ Orbital elements

Epoch: 2026-09-20T10:08:47.519808Z

Period
93.85 min
Inclination
53.1628°
Eccentricity
0.0000655
Mean motion
15.34409434 rev/d
Perigee alt
462.2 km
Apogee alt
463.1 km
Semi-major
6,840.8 km
B*
6.0240e-4
RAAN
313.8361°
Arg perigee
63.1110°
Mean anomaly
296.9959°
Rev number
4,740

§ Raw data

STARLINK-359021 66626U 25271K   26263.42277222  .00020037  00000+0  60240-3 0  99962 66626  53.1628 313.8361 0000655  63.1110 296.9959 15.34409434 47407

JSON: /api/v1/satellites/66626 · /tle

For live sub-satellite position, see the globe view (requires WebGL).

§ Visibility from observer

Set your observer location to see the next 7 days of passes ≥ 10°. The values pass through the URL so the page stays shareable.

No JS? Fill the form by hand. The geolocation button needs JavaScript.